Location: Unspecified
(0.0000°N, 0.0000°E)
Time: 11:14:53
(UTC+00:00)

Vanguard 2 - Visible Passes

Search period start: 29 April 2017 00:00
Search period end: 09 May 2017 00:00
Orbit: 553 x 2941 km, 32.9° (Epoch: 27 April)

Date Brightness Start Highest point End Pass type
(mag) Time Alt. Az. Time Alt. Az. Time Alt. Az.
29 Apr 10.9 20:07:40 10° NNW 20:20:35 26° NNE 20:25:07 22° NE visible
29 Apr 10.9 22:19:54 10° NW 22:26:33 28° NW 22:26:33 28° NW visible
30 Apr 11.5 18:13:01 10° NNW 18:23:28 18° N 18:33:19 10° NE visible
30 Apr 10.6 20:25:44 10° NNW 20:40:01 32° NNE 20:42:11 31° NE visible
30 Apr 11.1 22:38:15 10° NW 22:43:36 25° NW 22:43:36 25° NW visible
01 May 11.4 18:31:43 10° NNW 18:43:33 21° NNE 18:54:16 10° ENE visible
01 May 10.3 20:43:48 10° NW 20:59:11 41° NNE 20:59:15 41° NNE visible
01 May 11.3 22:56:51 10° WNW 23:00:40 20° WNW 23:00:40 20° WNW visible
02 May 11.2 18:50:02 10° NNW 19:03:22 25° NNE 19:14:55 10° ENE visible
02 May 10.2 21:01:55 10° NW 21:16:21 51° N 21:16:21 51° N visible
02 May 11.5 23:15:48 10° WNW 23:17:46 15° WNW 23:17:46 15° WNW visible
03 May 10.9 19:08:09 10° NNW 19:22:54 31° NNE 19:32:02 18° ENE visible
03 May 10.1 21:20:11 10° NW 21:33:29 56° NNW 21:33:29 56° NNW visible
04 May 10.6 19:26:11 10° NW 19:42:12 39° NNE 19:49:12 27° ENE visible
04 May 10.3 21:38:38 10° NW 21:50:38 53° NW 21:50:38 53° NW visible
05 May 10.3 19:44:15 10° NW 20:01:15 49° NNE 20:06:23 39° ENE visible
05 May 10.5 21:57:23 10° WNW 22:07:49 44° WNW 22:07:49 44° WNW visible
06 May 10.0 20:02:25 10° NW 20:20:06 62° NNE 20:23:37 53° ENE visible
06 May 10.9 22:16:29 10° WNW 22:25:03 34° W 22:25:03 34° W visible
07 May 11.1 18:09:20 10° NNW 18:24:41 36° NNE 18:38:54 10° E visible
07 May 9.8 20:20:44 10° NW 20:38:46 78° NE 20:40:52 70° E visible
07 May 11.2 22:36:02 10° WNW 22:42:18 25° W 22:42:18 25° W visible
08 May 10.8 18:27:18 10° NW 18:43:47 45° NNE 18:56:42 15° E visible
08 May 9.8 20:39:15 10° NW 20:57:17 84° SW 20:58:09 81° SSE visible
08 May 11.5 22:56:08 10° W 22:59:36 17° W 22:59:36 17° W visible
